Starlink 31637

operational
NORAD ID: 59258 Int'l Des: 2024-050 Owner: SPXS Country: US Constellation: starlink
LEOCIRCULAR

关于 Starlink 31637

正在加载描述...

实时位置

正在加载3D地球...

即将过境

高度历史

Altitude vs Time

uPlot chart will show altitude changes over time

两行轨道根数

1 59258U 24050E 25306.47420003 .00003962 00000-0 14584-3 0 9991
2 59258 53.1605 51.7319 0000780 91.2127 268.8963 15.30194565 91072
Epoch: Nov 2, 2025 • Age: 10 hours

当前状态

高度 475.7 km
速度 7.63 km/s
星下点 22.61°N, 152.37°W
发射日期 Mar 19, 2024
运行时间 1.6 years
类型 internet

技术详情

分类 Payload
质量 730.00 kg
干质量 700.00 kg
总质量 730.00 kg
长度 0.30 m
直径 4.10 m
跨度 29.00 m
形状 Box + pan
制造商 SPXS
平台类型 Starlink V2M
阶段状态 In Orbit
所有者/国家 SPXS/US

大型星座

Loading constellations...